User: anonymous   Login
Location: Caltech
(34.1382°N, 118.1253°W)
Time: 22:11:12
(UTC-08:00)
Language:

Cosmos 1484 Rocket - Orbit

View from above orbital plane
View from above orbital plane
View from above satellite
View from above satellite

Ground track
Ground track

The orbit data is extracted from the following two-line orbital elements,

1 14208U 83075B   17345.57637134 +.00000388 +00000-0 +26966-4 0  9996
2 14208 097.3406 348.8736 0037810 237.7870 121.9692 15.10575506873988
Epoch (UTC): 11 December 2017 13:49:58
Eccentricity: 0.0037810
inclination: 97.3406°
perigee height: 508 km
apogee height: 560 km
right ascension of ascending node: 348.8736°
argument of perigee: 237.7870°
revolutions per day: 15.10575506
mean anomaly at epoch: 121.9692°
orbit number at epoch: 87398

The dashed part of the orbit path shows where the satellite is in the earth's shadow,  

DLR